{"data":{"norad_id":68065,"epoch":"2026-09-19T14:47:34.641024Z","epoch_age_seconds":135866,"freshness":"FRESH","line1":"1 68065U 26041AB  26262.61637316  .00015385  00000+0  46537-3 0  9998","line2":"2 68065  53.1591 225.9474 0001007  92.6714 267.4404 15.34410390 31125","mean_motion":15.3441039,"eccentricity":0.0001007,"inclination_deg":53.1591,"raan_deg":225.9474,"arg_perigee_deg":92.6714,"mean_anomaly_deg":267.4404,"bstar":0.00046537,"rev_number":3112,"period_min":93.84712260714,"perigee_km":461.98348960931,"apogee_km":463.36122861423,"semimajor_km":6840.8093591118,"source":"CELESTRAK","updated_at":"2026-09-20T09:00:43.752131Z"}}